Weather in Onokhoy

Russia / Republic of Buryatia     51°55′36″N   108°03′57″E
temp.,
°C
wind,
m/s
gust,
m/s
humid.,
%
clouds,
%
prec.,
mm/h
press.,
hPa
HPBL,
m
29 november, mon
mon2923:00−13sw1193100 0.0 103223
02:00−13w1293100 0.0 103240
05:00−14wnw229669 0.0 103229
08:00−13w239785 0.2 103377
11:00−9w498175 0.1 1032764
14:00−7w5117891 0.2 10301134
17:00−8w51193100 0.6 10301001
20:00−8wnw6138750 0.9 1030793
30 november, tue
tue3023:00−9wnw5128775 0.3 1030786
02:00−9w5128782 0.4 1030791
05:00−9wnw5128893 0.1 1029878
08:00−9wnw4118989 0.2 1029663
11:00−7w4982100 0.1 1029886
14:00−6w498099 0.3 1028911
17:00−10wnw229668 0.1 102927
20:00−11w229768 0.3 103027
1 december, wed
wed123:00−12w229769 0.1 103035
02:00−14w229482 0.1 102930
05:00−14w229371 0.0 102837
08:00−15w23936 0.0 102744
11:00−9wsw36766 0.0 1024210
14:00−6wsw3671100 0.0 1020232
17:00−9w3585100 0.0 1021112
20:00−5w72367100 0.0 10191813
2 december, thu
thu223:00−6wnw91884100 1.6 10201695
02:00−7nw9177028 1.7 10211246
05:00−9nw6137671 0.0 1023951
08:00−10wnw6138049 0.0 1024834
11:00−8wnw5138185 0.0 1024834
14:00−7nw5117682 0.1 1023898
17:00−9wnw389097 0.0 1024263
20:00−8wnw4138894 0.1 1023644
3 december, fri
fri323:00−7w4148988 0.3 1022795
02:00−5wnw6158682 0.6 1021950
05:00−5wnw4136624 0.0 1021484
08:00−8w377835 0.0 1022202
11:00−5wsw377242 0.0 1023304
14:00−2wsw396220 0.0 1022496
17:00−8wnw22885 0.0 102422
20:00−10wnw22835 0.0 102521